SCP
-0 -0 -0 -0 -0 -0 -0 0 0 0 0 0 0 0 0 0 0 0 0 0 0 -0 0 0 0 0 0 0 0 0 0 0 0 0 0 0 0 0 0 0 0 0 0 0 0 0 0 0 0 0 0 0 0 0
-0 -0 -0 -0 -0 -0 -0 0 0 0 0 0 0 0 0 0 0 0 0 0 0 0 0 0 0 0 0 0 0 0 0 0 0 0 0 0 0 0 0 0 0 0 0 0 0 0 0 0 0 0 0 0 0 0
0 -0 -0 -0 -0 -0 -0 0 0 0 0 0 0 0 0 0 0 0 0 0 0 0 0 0 0 0 0 0 0 0 0 0 0 0 0 0 0 0 0 0 0 0 0 0 0 0 0 0 0 0 0 0 0 0
0 -0 -0 0 0 0 -0 -0 0 0 0 0 0 0 0 0 0 0 0 0 0 0 0 0 0 0 0 0 0 0 0 0 0 0 0 0 0 0 0 0 0 0 0 0 0 0 0 0 0 0 0 0 0 0
-0 -0 -0 0 0 0 -0 0 0 0 -0 0 0 0 0 0 0 0 0 0 0 0 0 0 0 0 0 0 0 0 0 0 0 0 0 0 0 0 0 0 0 0 0 0 0 0 0 0 0 0 0 0 0 0
-0 -0 0 0 0 0 0 0 0 0 -0 0 0 0 0 0 0 0 0 0 0 0 0 0 0 0 0 0 0 0 0 0 0 0 0 0 0 0 0 0 -0 0 0 0 0 0 0 0 0 0 0 0 0 0
-0 -0 0 0 0 0 0 0 0 0 -0 0 0 0 -0 -0 0 0 0 0 0 0 0 0 0 0 0 0 0 0 0 0 0 0 0 0 0 0 0 0 0 0 0 0 0 0 0 0 0 0 0 0 0 0
-0 -0 -0 0 0 0 0 0 0 -0 -0 0 0 -0 0 0 0 0 0 0 0 0 0 0 0 0 0 0 0 0 0 0 0 0 0 0 0 0 0 0 -0 0 0 0 0 0 0 0 0 0 0 0 0 0
-0 0 0 0 0 -0 -0 0 0 -0 -0 0 0 0 0 0 0 0 0 0 0 0 0 0 0 0 0 0 0 0 0 0 0 0 0 0 0 0 -0 -0 0 0 0 0 0 0 0 0 0 0 0 0 0 0
0 -0 0 0 -0 -0 0 0 0 0 0 0 0 0 0 0 0 -0 0 0 0 0 0 0 0 0 0 0 0 0 0 0 0 0 0 0 0 0 -0 0 -0 0 0 0 0 0 0 0 0 0 0 0 0 0
-0 -0 0 0 -0 -0 0 0 0 0 0 0 0 0 0 -0 0 0 0 0 0 0 0 0 0 0 0 0 0 0 0 0 0 -0 0 0 -0 -0 -0 -0 -0 0 0 0 0 0 0 0 0 0 0 0 0 0
-0 -0 0 -0 0 0 0 0 0 0 0 0 0 0 0 0 0 -0 -0 -0 -0 -0 -0 -0 -0 0 0 0 0 -0 0 -0 -0 0 -0 0 0 0 0 0 0 0 0 0 0 0 0 0 0 0 0 0 0 0
0 0 -0 0 0 0 0 0 0 -0 0 0 0 0 0 -0 0 -0 0 0 0 0 0 0 0 0 0 -0 -0 -0 0 0 0 -0 -0 0 0 0 0 0 0 0 0 0 0 0 0 0 0 0 0 0 0 0
0 0 0 0 0 0 0 0 0 0 0 0 0 -0 0 0 0 0 -0 -0 -0 0 0 -0 0 0 0 0 0 0 0 0 -0 -0 0 0 0 0 -0 0 0 0 0 0 0 0 0 0 0 0 0 0 0 0
0 0 0 0 0 0 0 0 -0 0 -0 0 0 0 -0 -0 0 -0 -0 0 0 0 0 0 0 0 0 0 0 0 0 -0 -0 0 0 0 0 0 0 -0 0 0 0 0 0 0 0 0 0 0 0 0 0 0
-0 0 0 0 0 0 -0 -0 -0 -0 -0 -0 -0 0 0 0 -0 -0 -0 0 0 0 0 0 0 0 0 0 0 0 0 0 0 0 0 0 0 0 0 -0 -0 -0 -0 -0 0 0 0 -0 -0 -0 -0 0 0 0
0 0 0 -0 -0 -0 -0 -0 -0 -0 0 0 -0 -0 -0 -0 -0 -0 -0 0 0 0 0 0 0 0 0 0 0 0 0 0 0 0 0 0 0 -0 -0 -0 -0 -0 -0 -0 -0 -0 -0 -0 -0 -0 -0 -0 0 0
-0 -0 -0 -0 -0 -0 -0 -0 -0 -0 -0 -0 -0 -0 -0 -0 0 -0 0 0 0 0 0 0 0 0 0 0 0 0 0 0 0 0 0 0 0 0 0 -0 -0 -0 -0 -0 -0 -0 -0 -0 -0 -0 -0 -0 0 0
-0 -0 -0 -0 -0 -0 0 -0 -0 -0 0 0 0 -0 -0 -0 -0 0 0 0 0 0 0 0 0 0 0 0 0 0 0 0 0 0 0 0 0 0 0 0 0 -0 -0 -0 -0 -0 -0 -0 0 0 0 0 0 0
0 0 0 0 0 0 0 0 0 -0 0 0 0 0 -0 -0 0 0 0 0 0 0 0 0 0 0 0 0 0 0 0 0 0 0 0 0 0 0 0 0 0 0 0 0 0 0 0 0 0 0 0 0 0 0
0 0 0 0 0 0 0 0 0 0 0 0 0 0 0 0 0 0 0 0 0 0 0 0 0 0 0 0 0 0 0 0 0 0 0 0 0 0 0 0 0 0 0 0 0 0 0 0 0 0 0 0 0 0
0 0 0 0 0 0 0 0 0 0 0 0 0 0 0 0 0 0 0 0 0 0 0 0 0 0 0 0 0 0 0 0 0 0 0 0 0 0 0 0 0 0 0 0 0 0 0 0 0 0 0 0 0 0
0 0 0 0 0 0 0 0 0 0 0 0 0 0 0 0 0 0 0 0 0 0 0 0 0 0 0 0 0 0 0 0 0 0 0 0 0 0 0 0 0 0 0 0 0 0 0 0 0 0 0 0 0 0
0 0 0 0 0 0 0 0 0 0 0 0 0 0 0 0 0 0 0 0 0 0 0 0 0 0 0 0 0 0 0 0 0 0 0 0 0 0 0 0 0 0 0 0 0 0 0 0 0 0 0 0 0 0
0 0 0 0 0 0 0 0 0 0 0 0 0 0 0 0 0 0 0 0 0 0 0 0 0 0 0 0 0 0 0 0 0 0 0 0 0 0 0 0 0 0 0 0 0 0 0 0 0 0 0 0 0 0
0 0 0 0 0 0 0 0 0 0 0 0 0 0 0 0 0 0 0 0 0 0 0 0 0 0 0 0 0 0 0 0 0 0 0 0 0 0 0 0 0 0 0 0 0 0 0 0 0 0 0 0 0 0
0 0 0 0 0 0 0 0 0 0 0 0 0 0 0 0 0 0 0 0 0 0 0 0 0 0 0 0 0 0 0 0 0 0 0 0 0 0 0 0 0 0 0 0 0 0 0 0 0 0 0 0 0 0
0 0 0 0 0 0 0 0 0 0 0 0 0 0 0 0 0 0 0 0 0 0 0 0 0 0 0 0 0 0 0 0 0 0 0 0 0 0 0 0 0 0 0 0 0 0 0 0 0 0 0 0 0 0
0 0 0 0 0 0 0 0 0 0 0 0 0 0 0 0 0 0 0 0 0 0 0 0 0 0 0 0 0 0 0 0 0 0 0 0 0 0 0 0 0 0 0 0 0 0 0 0 0 0 0 0 0 0
0 0 0 0 0 0 0 0 0 0 0 0 0 0 0 0 0 0 0 0 0 0 0 0 0 0 0 0 0 0 0 0 0 0 0 0 0 0 0 0 0 0 0 0 0 0 0 0 0 0 0 0 0 0
0 0 0 0 0 0 0 0 0 0 0 0 0 0 0 0 0 0 0 0 0 0 0 0 0 0 0 0 0 0 0 0 0 0 0 0 0 0 0 0 0 0 0 0 0 0 0 0 0 0 0 0 0 0
0 0 0 0 0 0 0 0 0 0 0 0 0 0 0 0 0 0 0 0 0 0 0 0 0 0 0 0 0 0 0 0 0 0 0 0 0 0 0 0 0 0 0 0 0 0 0 0 0 0 0 0 0 0
0 0 0 0 0 0 0 0 0 0 0 0 0 0 0 0 0 0 0 0 0 0 0 0 0 0 0 0 0 0 0 0 0 0 0 0 0 0 0 0 0 0 0 0 0 0 0 0 0 0 0 0 0 0
Wind_Speed_500mb
82 78 72 64 60 55 51 48 42 38 37 35 36 35 34 29 26 31 33 38 26 10 19 18 36 31 36 48 17 24 19 7 6 9 9 15 16 21 29 33 32 30 22 21 17 21 28 10 24 15 6 6 8 17
89 90 79 77 65 60 54 49 45 39 38 36 34 35 32 30 28 32 27 26 30 34 15 19 28 31 45 29 36 44 19 31 18 10 9 6 12 9 20 22 21 25 29 24 23 18 4 14 27 33 25 18 14 8
59 58 89 69 65 58 57 51 48 43 39 36 35 36 37 38 39 37 37 35 38 26 21 22 29 38 22 34 35 18 35 20 14 11 1 6 12 3 11 14 24 27 42 20 20 20 23 32 10 19 15 12 7 3
55 50 88 66 60 54 51 50 46 40 39 35 34 33 35 39 42 40 42 40 46 15 10 8 17 35 41 21 30 21 15 21 17 17 11 9 11 17 13 18 22 13 22 14 13 26 19 42 37 17 17 11 8 8
25 28 78 67 56 47 42 40 41 39 37 35 36 33 34 37 37 31 35 43 40 22 6 3 28 34 42 32 24 20 18 18 22 14 10 12 22 16 19 21 26 27 25 10 15 27 6 22 7 13 16 16 16 16
19 53 72 60 51 44 39 37 30 32 32 40 39 35 35 37 37 36 28 45 51 31 8 8 27 49 45 41 35 33 33 32 36 32 21 33 38 22 10 17 23 29 31 26 25 21 9 17 10 7 20 21 15 18
51 76 66 55 47 40 37 34 32 29 25 25 44 36 38 38 49 44 16 19 73 41 8 3 11 31 43 41 38 39 38 38 41 42 40 37 40 28 21 34 33 41 51 48 32 18 11 12 7 7 12 15 18 20
70 73 56 47 42 31 27 29 33 37 33 36 39 35 30 40 38 23 24 47 60 23 10 5 7 18 42 30 30 40 36 36 31 37 34 31 37 38 15 31 38 46 39 38 27 23 21 13 10 13 16 21 26 25
65 63 52 43 42 30 22 22 18 44 51 43 37 33 45 44 16 26 47 45 34 7 8 11 11 10 21 39 29 21 22 10 15 13 24 20 18 20 18 40 42 41 26 18 22 19 14 15 18 19 22 26 28 31
58 58 51 43 36 31 36 34 44 56 52 41 45 11 6 15 44 44 15 11 8 6 9 6 27 9 17 13 13 16 14 9 9 17 18 19 28 54 61 51 38 25 24 19 23 22 20 22 23 24 26 28 31 35
51 51 45 37 34 43 42 44 50 53 49 17 7 9 29 29 7 5 8 7 14 8 16 26 35 13 22 9 9 22 6 8 8 12 14 10 16 38 77 73 45 21 23 22 20 17 22 23 27 28 26 31 30 34
57 50 44 44 47 50 46 51 56 41 12 7 20 26 16 4 3 5 9 8 11 10 12 16 28 39 15 11 5 10 10 9 11 22 10 7 4 7 17 42 38 29 24 24 18 15 22 25 28 31 30 33 31 34
57 52 44 42 49 57 53 51 39 18 19 23 7 7 5 8 11 10 15 8 8 10 12 12 10 23 14 13 7 10 14 8 11 9 6 3 18 19 25 31 33 30 25 19 16 18 21 25 27 32 32 30 32 36
47 47 40 35 51 57 52 48 30 21 8 2 5 8 8 9 10 9 10 5 8 8 23 26 13 9 12 10 8 5 3 5 6 6 4 9 25 31 30 28 31 28 24 24 22 22 25 28 30 30 31 30 34 38
41 39 36 48 54 52 58 39 30 21 6 6 10 6 14 19 10 7 4 7 8 9 16 13 6 16 7 4 5 5 3 8 9 4 5 24 36 36 33 32 32 29 27 25 24 26 27 27 27 27 28 29 32 32
42 39 29 39 49 57 45 29 21 15 9 8 8 8 11 12 4 2 4 14 8 10 12 10 7 7 6 6 8 11 7 8 4 5 12 23 31 33 34 27 28 25 23 29 29 29 28 29 30 30 29 27 28 27
18 9 28 32 31 37 34 31 21 10 8 7 5 10 17 20 9 7 7 12 10 8 4 4 6 6 5 6 8 4 4 5 7 5 12 24 34 31 30 29 28 26 24 28 29 30 32 32 32 30 31 29 26 25
4 11 20 20 19 26 28 25 9 9 12 14 7 7 9 15 11 11 9 11 11 9 3 4 1 4 4 5 2 5 5 2 5 13 18 28 29 31 30 30 29 26 25 26 28 30 32 33 31 29 26 28 27 27
22 19 28 27 27 17 9 11 13 9 5 6 11 10 8 8 8 9 13 13 11 11 10 6 4 6 1 8 3 4 6 11 14 16 23 26 29 29 29 29 30 28 27 28 29 30 30 26 21 26 29 29 28 30
19 15 18 22 37 9 8 7 9 10 6 3 7 8 7 6 6 9 8 11 11 6 6 6 1 7 7 3 0 7 12 21 23 22 23 26 29 31 31 31 30 30 29 27 23 23 26 29 26 26 29 29 32 32
11 16 13 18 27 18 9 7 9 7 5 6 3 8 7 7 11 8 10 8 9 8 6 1 5 7 4 6 7 11 17 21 26 22 29 29 30 28 26 25 26 29 28 34 32 31 29 30 31 33 33 31 32 30
12 15 12 17 15 11 11 11 9 4 7 1 5 8 7 5 7 10 7 11 11 8 2 4 6 8 6 6 10 11 18 26 23 20 26 27 31 28 29 30 27 29 27 27 30 30 31 29 32 33 33 30 33 34
6 7 6 9 9 10 6 6 9 7 5 4 5 6 5 4 5 3 8 13 5 11 10 9 10 9 13 11 12 13 19 19 20 19 21 20 22 27 27 27 28 30 29 28 27 28 27 30 35 31 27 33 35 34
4 7 8 5 8 3 3 5 7 6 3 6 5 5 2 3 3 8 10 12 11 12 14 15 17 15 15 15 15 15 17 18 18 19 20 26 22 23 27 27 28 30 29 29 30 30 29 33 34 30 32 36 35 37
4 2 1 4 5 4 6 4 4 5 5 7 4 6 2 4 4 7 10 7 10 11 18 23 21 19 17 17 17 17 20 17 17 18 18 19 21 22 23 24 26 29 30 32 32 32 31 33 34 35 38 37 38 41
4 1 2 2 3 5 4 4 6 7 3 4 6 3 3 4 6 9 1 7 5 14 19 21 24 23 19 19 19 20 17 18 18 19 20 20 23 25 26 28 28 30 34 35 35 34 36 34 34 37 39 38 40 39
4 2 4 3 6 6 5 6 7 4 5 6 4 5 5 7 9 2 4 2 2 12 15 19 22 21 16 18 16 14 16 15 18 16 17 19 16 19 24 27 30 31 25 25 35 38 37 35 34 37 39 37 39 39
2 2 3 2 5 5 4 5 5 6 4 1 2 6 6 5 4 6 3 12 11 7 11 18 25 23 16 14 19 19 20 22 22 23 20 19 22 24 24 23 23 24 21 21 21 30 36 34 34 36 39 39 38 37
2 5 6 4 6 8 8 7 5 3 1 4 4 6 4 5 8 12 13 10 10 12 14 13 13 18 22 22 21 20 19 20 22 17 14 15 17 15 14 24 27 25 26 25 22 21 31 35 31 31 33 33 34 32
0 2 7 3 5 7 6 5 7 12 13 16 16 22 29 31 31 29 26 24 22 21 18 17 21 21 18 18 19 24 26 23 21 20 17 15 17 13 12 15 16 22 23 20 19 21 27 30 30 33 31 31 32 27
5 5 6 8 8 8 11 19 22 26 27 28 29 34 37 32 36 43 41 40 34 30 26 28 27 25 22 20 19 19 19 20 23 28 28 25 21 18 17 15 15 19 21 22 20 20 26 32 35 34 34 34 33 30
5 7 7 6 10 5 14 9 9 12 13 16 22 21 17 12 16 13 19 17 26 33 31 31 31 29 27 26 28 25 23 14 11 14 18 23 24 21 18 14 14 17 20 23 26 25 24 31 32 33 33 33 31 30
8 15 17 12 8 8 8 5 7 9 14 12 17 26 23 12 11 11 15 16 17 17 20 23 27 34 32 28 30 29 30 29 28 26 21 19 19 17 16 14 17 18 19 21 26 28 25 29 31 31 32 31 32 31
Wind_Direction_500mb
251 239 241 243 239 236 233 235 235 238 236 233 229 230 228 225 217 212 217 220 220 256 264 246 249 227 252 226 179 161 150 219 179 205 236 237 255 254 260 259 260 266 246 223 231 241 259 294 304 287 355 335 287 288
262 242 233 228 234 234 230 228 230 234 235 230 228 222 220 217 219 222 226 230 243 219 250 251 245 230 246 224 180 168 176 166 165 197 217 253 255 285 285 279 287 263 259 268 252 259 246 241 236 273 280 276 284 290
281 266 224 219 221 225 223 223 226 231 228 223 217 213 210 208 208 213 212 220 223 227 261 246 233 234 231 212 239 141 201 156 161 173 338 246 252 284 263 279 293 284 261 256 283 283 291 305 310 202 221 244 238 228
279 257 212 195 208 212 213 222 222 218 213 213 212 207 201 201 207 213 210 201 199 196 232 265 203 211 214 201 201 186 182 209 190 176 207 238 244 230 253 269 281 262 299 283 278 268 304 282 275 267 221 217 209 187
273 213 188 183 195 195 195 203 203 205 211 207 206 201 200 200 207 215 232 229 215 207 209 213 196 206 196 201 204 195 192 195 194 188 214 229 238 273 268 268 259 265 278 297 301 313 275 289 326 324 216 212 180 181
147 150 166 172 179 184 186 186 197 194 208 206 198 194 194 196 195 193 210 230 206 186 94 194 193 198 204 207 213 211 212 220 225 232 228 240 247 253 262 260 250 257 271 280 299 308 296 277 301 320 182 172 182 191
142 147 156 164 169 175 182 191 205 204 209 180 180 188 198 194 190 183 217 235 193 170 217 191 160 182 192 197 209 216 220 227 228 237 241 250 252 254 251 257 267 271 282 284 284 253 266 256 260 192 165 170 176 175
144 151 152 157 165 169 179 192 206 207 197 175 175 186 202 166 179 205 129 143 168 192 192 244 152 160 180 185 204 212 221 225 238 242 244 237 241 246 253 255 262 262 262 260 240 231 242 276 220 189 173 166 160 151
146 151 148 147 148 150 154 143 161 180 177 170 178 180 153 176 175 140 146 154 173 174 202 206 183 172 177 213 205 186 204 224 226 227 232 232 227 223 244 247 249 253 224 225 219 213 233 210 198 186 178 175 163 163
149 156 157 151 145 138 141 133 124 134 150 166 142 88 71 104 116 108 126 135 189 249 240 254 209 163 173 166 182 171 188 227 228 221 225 225 243 239 239 248 248 267 199 199 189 198 199 194 191 186 187 179 175 176
149 154 157 163 155 147 142 136 138 139 133 123 73 62 118 123 121 116 117 173 182 213 216 222 216 181 183 164 185 198 210 226 237 210 197 220 234 231 234 237 241 219 186 190 192 204 205 203 191 186 182 177 183 184
148 143 143 147 150 149 145 145 139 133 137 113 115 109 126 177 133 175 190 199 226 221 201 202 200 201 165 151 135 213 233 215 240 140 200 242 102 49 202 208 190 170 168 171 173 191 196 194 192 186 177 179 187 184
150 154 152 151 155 157 154 151 136 145 131 120 96 127 176 183 218 222 193 199 202 204 178 163 161 169 149 168 197 250 186 211 160 187 232 64 131 126 123 125 138 153 164 172 180 189 188 187 191 183 178 190 188 185
133 146 156 169 167 163 163 158 157 160 160 248 181 186 208 190 237 208 238 304 211 235 202 173 136 163 184 174 225 249 54 211 236 233 230 140 146 136 141 148 148 156 169 176 183 179 181 182 181 188 191 190 190 189
113 119 126 145 156 160 164 170 170 188 235 266 224 244 208 241 267 335 358 274 228 225 158 145 171 199 192 154 223 126 190 233 229 246 72 125 141 151 152 160 167 173 178 182 176 174 176 177 179 178 184 190 194 191
119 110 129 146 164 163 167 175 201 237 244 258 251 272 303 281 250 256 286 262 259 248 186 218 193 162 193 181 197 211 216 224 90 80 115 152 158 164 163 171 172 174 175 163 166 168 170 172 174 174 179 184 192 197
136 139 166 163 171 182 199 208 217 240 250 250 242 253 277 282 287 324 253 264 213 222 223 219 193 173 177 214 213 210 9 33 76 124 157 173 172 164 164 165 165 168 164 163 166 166 168 172 174 171 168 176 184 190
259 204 194 182 192 225 232 248 270 247 241 238 260 212 238 271 279 273 264 267 229 230 202 282 308 207 226 208 312 87 96 131 162 173 168 169 165 165 170 169 168 171 166 165 166 165 168 169 168 169 182 180 180 183
192 208 212 219 207 211 217 217 223 262 250 264 259 255 255 260 267 271 273 276 261 262 284 247 226 239 151 66 84 124 176 186 168 164 170 172 170 169 172 175 172 170 170 167 169 173 178 175 176 182 191 188 193 194
218 221 218 208 192 226 243 230 221 260 250 181 232 225 242 259 264 278 276 281 276 254 245 240 292 54 48 111 0 197 203 190 177 158 170 178 179 175 178 178 178 176 171 167 175 178 180 181 191 204 199 196 192 197
221 212 208 188 196 229 270 240 240 255 267 253 250 251 251 217 246 256 277 251 256 237 241 57 89 237 245 246 228 192 201 196 190 190 185 179 181 180 175 182 189 175 180 184 191 191 195 193 197 206 203 203 202 215
234 222 183 203 218 227 248 231 255 230 240 184 241 240 263 231 233 228 240 234 245 218 189 174 223 211 217 194 166 179 185 181 187 187 178 188 182 181 183 191 186 188 196 202 199 206 202 203 216 211 211 204 203 210
200 171 208 217 227 224 255 214 226 225 216 237 199 226 217 231 250 309 253 235 207 212 219 207 197 199 202 188 180 189 190 192 194 197 198 190 194 198 203 208 201 203 207 213 214 218 217 217 220 219 204 199 200 203
177 194 202 220 233 242 268 251 254 223 274 248 227 255 241 198 243 252 256 240 156 191 198 195 189 175 171 175 182 184 188 195 201 206 201 205 201 201 210 217 223 221 220 219 220 224 223 219 222 210 202 205 202 203
225 287 215 217 238 203 217 242 288 235 249 226 293 284 194 199 244 248 256 137 167 206 199 198 197 196 203 203 205 203 200 197 211 208 204 210 212 210 215 224 230 229 224 217 221 221 222 220 220 206 207 208 206 212
240 190 276 282 242 240 227 252 219 234 243 228 253 355 349 250 252 248 353 87 163 197 205 210 211 213 214 221 219 217 221 201 208 219 223 220 213 222 225 225 229 233 228 219 222 222 221 220 215 205 211 210 212 218
225 177 206 246 285 274 281 267 292 260 238 236 208 185 229 239 242 117 121 157 197 215 218 215 218 226 227 207 201 205 204 226 210 228 222 225 219 227 235 239 241 240 244 243 224 220 225 224 219 209 212 211 215 218
39 321 254 286 275 252 263 283 224 233 240 92 249 227 239 250 352 46 338 287 261 247 239 228 224 220 223 220 210 220 225 221 223 232 229 216 225 234 234 241 243 240 239 240 238 221 223 227 223 214 211 212 213 214
257 314 295 243 258 237 229 230 250 237 327 201 258 265 285 320 302 290 290 266 253 254 246 233 238 230 231 230 225 232 244 238 224 213 231 243 247 253 248 243 242 238 239 246 242 233 217 220 221 213 213 210 213 215
245 275 279 246 232 242 210 212 263 269 263 262 267 273 279 278 285 286 272 262 257 249 246 226 238 245 238 235 234 235 235 240 226 224 232 245 237 246 262 273 259 236 234 236 232 219 204 205 208 202 199 200 208 203
293 265 255 246 269 270 256 273 274 274 268 260 259 258 268 283 288 283 274 270 251 242 232 235 239 243 239 239 231 235 248 251 237 231 231 241 249 262 280 284 245 233 231 232 234 222 210 202 204 199 198 206 215 215
259 254 287 275 289 268 305 272 273 265 267 254 248 247 255 263 269 271 271 269 239 231 233 235 238 245 246 242 244 241 239 242 224 231 234 241 246 258 272 268 240 219 219 218 220 225 217 211 208 206 210 214 218 217
247 265 261 270 264 251 195 265 261 271 252 253 257 234 233 237 259 265 270 252 226 213 220 232 236 237 238 239 238 242 243 245 244 247 251 245 246 254 260 259 229 223 212 207 210 215 217 210 209 212 213 215 216 214
Wind_Speed_850mb
82 78 72 64 60 55 51 48 42 38 37 35 36 35 34 29 26 31 33 38 26 10 19 18 36 31 36 48 17 24 19 7 6 9 9 15 16 21 29 33 32 30 22 21 17 21 28 10 24 15 6 6 8 17
89 90 79 77 65 60 54 49 45 39 38 36 34 35 32 30 28 32 27 26 30 34 15 19 28 31 45 29 36 44 19 31 18 10 9 6 12 9 20 22 21 25 29 24 23 18 4 14 27 33 25 18 14 8
59 58 89 69 65 58 57 51 48 43 39 36 35 36 37 38 39 37 37 35 38 26 21 22 29 38 22 34 35 18 35 20 14 11 1 6 12 3 11 14 24 27 42 20 20 20 23 32 10 19 15 12 7 3
55 50 88 66 60 54 51 50 46 40 39 35 34 33 35 39 42 40 42 40 46 15 10 8 17 35 41 21 30 21 15 21 17 17 11 9 11 17 13 18 22 13 22 14 13 26 19 42 37 17 17 11 8 8
25 28 78 67 56 47 42 40 41 39 37 35 36 33 34 37 37 31 35 43 40 22 6 3 28 34 42 32 24 20 18 18 22 14 10 12 22 16 19 21 26 27 25 10 15 27 6 22 7 13 16 16 16 16
19 53 72 60 51 44 39 37 30 32 32 40 39 35 35 37 37 36 28 45 51 31 8 8 27 49 45 41 35 33 33 32 36 32 21 33 38 22 10 17 23 29 31 26 25 21 9 17 10 7 20 21 15 18
51 76 66 55 47 40 37 34 32 29 25 25 44 36 38 38 49 44 16 19 73 41 8 3 11 31 43 41 38 39 38 38 41 42 40 37 40 28 21 34 33 41 51 48 32 18 11 12 7 7 12 15 18 20
70 73 56 47 42 31 27 29 33 37 33 36 39 35 30 40 38 23 24 47 60 23 10 5 7 18 42 30 30 40 36 36 31 37 34 31 37 38 15 31 38 46 39 38 27 23 21 13 10 13 16 21 26 25
65 63 52 43 42 30 22 22 18 44 51 43 37 33 45 44 16 26 47 45 34 7 8 11 11 10 21 39 29 21 22 10 15 13 24 20 18 20 18 40 42 41 26 18 22 19 14 15 18 19 22 26 28 31
58 58 51 43 36 31 36 34 44 56 52 41 45 11 6 15 44 44 15 11 8 6 9 6 27 9 17 13 13 16 14 9 9 17 18 19 28 54 61 51 38 25 24 19 23 22 20 22 23 24 26 28 31 35
51 51 45 37 34 43 42 44 50 53 49 17 7 9 29 29 7 5 8 7 14 8 16 26 35 13 22 9 9 22 6 8 8 12 14 10 16 38 77 73 45 21 23 22 20 17 22 23 27 28 26 31 30 34
57 50 44 44 47 50 46 51 56 41 12 7 20 26 16 4 3 5 9 8 11 10 12 16 28 39 15 11 5 10 10 9 11 22 10 7 4 7 17 42 38 29 24 24 18 15 22 25 28 31 30 33 31 34
57 52 44 42 49 57 53 51 39 18 19 23 7 7 5 8 11 10 15 8 8 10 12 12 10 23 14 13 7 10 14 8 11 9 6 3 18 19 25 31 33 30 25 19 16 18 21 25 27 32 32 30 32 36
47 47 40 35 51 57 52 48 30 21 8 2 5 8 8 9 10 9 10 5 8 8 23 26 13 9 12 10 8 5 3 5 6 6 4 9 25 31 30 28 31 28 24 24 22 22 25 28 30 30 31 30 34 38
41 39 36 48 54 52 58 39 30 21 6 6 10 6 14 19 10 7 4 7 8 9 16 13 6 16 7 4 5 5 3 8 9 4 5 24 36 36 33 32 32 29 27 25 24 26 27 27 27 27 28 29 32 32
42 39 29 39 49 57 45 29 21 15 9 8 8 8 11 12 4 2 4 14 8 10 12 10 7 7 6 6 8 11 7 8 4 5 12 23 31 33 34 27 28 25 23 29 29 29 28 29 30 30 29 27 28 27
18 9 28 32 31 37 34 31 21 10 8 7 5 10 17 20 9 7 7 12 10 8 4 4 6 6 5 6 8 4 4 5 7 5 12 24 34 31 30 29 28 26 24 28 29 30 32 32 32 30 31 29 26 25
4 11 20 20 19 26 28 25 9 9 12 14 7 7 9 15 11 11 9 11 11 9 3 4 1 4 4 5 2 5 5 2 5 13 18 28 29 31 30 30 29 26 25 26 28 30 32 33 31 29 26 28 27 27
22 19 28 27 27 17 9 11 13 9 5 6 11 10 8 8 8 9 13 13 11 11 10 6 4 6 1 8 3 4 6 11 14 16 23 26 29 29 29 29 30 28 27 28 29 30 30 26 21 26 29 29 28 30
19 15 18 22 37 9 8 7 9 10 6 3 7 8 7 6 6 9 8 11 11 6 6 6 1 7 7 3 0 7 12 21 23 22 23 26 29 31 31 31 30 30 29 27 23 23 26 29 26 26 29 29 32 32
11 16 13 18 27 18 9 7 9 7 5 6 3 8 7 7 11 8 10 8 9 8 6 1 5 7 4 6 7 11 17 21 26 22 29 29 30 28 26 25 26 29 28 34 32 31 29 30 31 33 33 31 32 30
12 15 12 17 15 11 11 11 9 4 7 1 5 8 7 5 7 10 7 11 11 8 2 4 6 8 6 6 10 11 18 26 23 20 26 27 31 28 29 30 27 29 27 27 30 30 31 29 32 33 33 30 33 34
6 7 6 9 9 10 6 6 9 7 5 4 5 6 5 4 5 3 8 13 5 11 10 9 10 9 13 11 12 13 19 19 20 19 21 20 22 27 27 27 28 30 29 28 27 28 27 30 35 31 27 33 35 34
4 7 8 5 8 3 3 5 7 6 3 6 5 5 2 3 3 8 10 12 11 12 14 15 17 15 15 15 15 15 17 18 18 19 20 26 22 23 27 27 28 30 29 29 30 30 29 33 34 30 32 36 35 37
4 2 1 4 5 4 6 4 4 5 5 7 4 6 2 4 4 7 10 7 10 11 18 23 21 19 17 17 17 17 20 17 17 18 18 19 21 22 23 24 26 29 30 32 32 32 31 33 34 35 38 37 38 41
4 1 2 2 3 5 4 4 6 7 3 4 6 3 3 4 6 9 1 7 5 14 19 21 24 23 19 19 19 20 17 18 18 19 20 20 23 25 26 28 28 30 34 35 35 34 36 34 34 37 39 38 40 39
4 2 4 3 6 6 5 6 7 4 5 6 4 5 5 7 9 2 4 2 2 12 15 19 22 21 16 18 16 14 16 15 18 16 17 19 16 19 24 27 30 31 25 25 35 38 37 35 34 37 39 37 39 39
2 2 3 2 5 5 4 5 5 6 4 1 2 6 6 5 4 6 3 12 11 7 11 18 25 23 16 14 19 19 20 22 22 23 20 19 22 24 24 23 23 24 21 21 21 30 36 34 34 36 39 39 38 37
2 5 6 4 6 8 8 7 5 3 1 4 4 6 4 5 8 12 13 10 10 12 14 13 13 18 22 22 21 20 19 20 22 17 14 15 17 15 14 24 27 25 26 25 22 21 31 35 31 31 33 33 34 32
0 2 7 3 5 7 6 5 7 12 13 16 16 22 29 31 31 29 26 24 22 21 18 17 21 21 18 18 19 24 26 23 21 20 17 15 17 13 12 15 16 22 23 20 19 21 27 30 30 33 31 31 32 27
5 5 6 8 8 8 11 19 22 26 27 28 29 34 37 32 36 43 41 40 34 30 26 28 27 25 22 20 19 19 19 20 23 28 28 25 21 18 17 15 15 19 21 22 20 20 26 32 35 34 34 34 33 30
5 7 7 6 10 5 14 9 9 12 13 16 22 21 17 12 16 13 19 17 26 33 31 31 31 29 27 26 28 25 23 14 11 14 18 23 24 21 18 14 14 17 20 23 26 25 24 31 32 33 33 33 31 30
8 15 17 12 8 8 8 5 7 9 14 12 17 26 23 12 11 11 15 16 17 17 20 23 27 34 32 28 30 29 30 29 28 26 21 19 19 17 16 14 17 18 19 21 26 28 25 29 31 31 32 31 32 31
Wind_Direction_850mb
251 239 241 243 239 236 233 235 235 238 236 233 229 230 228 225 217 212 217 220 220 256 264 246 249 227 252 226 179 161 150 219 179 205 236 237 255 254 260 259 260 266 246 223 231 241 259 294 304 287 355 335 287 288
262 242 233 228 234 234 230 228 230 234 235 230 228 222 220 217 219 222 226 230 243 219 250 251 245 230 246 224 180 168 176 166 165 197 217 253 255 285 285 279 287 263 259 268 252 259 246 241 236 273 280 276 284 290
281 266 224 219 221 225 223 223 226 231 228 223 217 213 210 208 208 213 212 220 223 227 261 246 233 234 231 212 239 141 201 156 161 173 338 246 252 284 263 279 293 284 261 256 283 283 291 305 310 202 221 244 238 228
279 257 212 195 208 212 213 222 222 218 213 213 212 207 201 201 207 213 210 201 199 196 232 265 203 211 214 201 201 186 182 209 190 176 207 238 244 230 253 269 281 262 299 283 278 268 304 282 275 267 221 217 209 187
273 213 188 183 195 195 195 203 203 205 211 207 206 201 200 200 207 215 232 229 215 207 209 213 196 206 196 201 204 195 192 195 194 188 214 229 238 273 268 268 259 265 278 297 301 313 275 289 326 324 216 212 180 181
147 150 166 172 179 184 186 186 197 194 208 206 198 194 194 196 195 193 210 230 206 186 94 194 193 198 204 207 213 211 212 220 225 232 228 240 247 253 262 260 250 257 271 280 299 308 296 277 301 320 182 172 182 191
142 147 156 164 169 175 182 191 205 204 209 180 180 188 198 194 190 183 217 235 193 170 217 191 160 182 192 197 209 216 220 227 228 237 241 250 252 254 251 257 267 271 282 284 284 253 266 256 260 192 165 170 176 175
144 151 152 157 165 169 179 192 206 207 197 175 175 186 202 166 179 205 129 143 168 192 192 244 152 160 180 185 204 212 221 225 238 242 244 237 241 246 253 255 262 262 262 260 240 231 242 276 220 189 173 166 160 151
146 151 148 147 148 150 154 143 161 180 177 170 178 180 153 176 175 140 146 154 173 174 202 206 183 172 177 213 205 186 204 224 226 227 232 232 227 223 244 247 249 253 224 225 219 213 233 210 198 186 178 175 163 163
149 156 157 151 145 138 141 133 124 134 150 166 142 88 71 104 116 108 126 135 189 249 240 254 209 163 173 166 182 171 188 227 228 221 225 225 243 239 239 248 248 267 199 199 189 198 199 194 191 186 187 179 175 176
149 154 157 163 155 147 142 136 138 139 133 123 73 62 118 123 121 116 117 173 182 213 216 222 216 181 183 164 185 198 210 226 237 210 197 220 234 231 234 237 241 219 186 190 192 204 205 203 191 186 182 177 183 184
148 143 143 147 150 149 145 145 139 133 137 113 115 109 126 177 133 175 190 199 226 221 201 202 200 201 165 151 135 213 233 215 240 140 200 242 102 49 202 208 190 170 168 171 173 191 196 194 192 186 177 179 187 184
150 154 152 151 155 157 154 151 136 145 131 120 96 127 176 183 218 222 193 199 202 204 178 163 161 169 149 168 197 250 186 211 160 187 232 64 131 126 123 125 138 153 164 172 180 189 188 187 191 183 178 190 188 185
133 146 156 169 167 163 163 158 157 160 160 248 181 186 208 190 237 208 238 304 211 235 202 173 136 163 184 174 225 249 54 211 236 233 230 140 146 136 141 148 148 156 169 176 183 179 181 182 181 188 191 190 190 189
113 119 126 145 156 160 164 170 170 188 235 266 224 244 208 241 267 335 358 274 228 225 158 145 171 199 192 154 223 126 190 233 229 246 72 125 141 151 152 160 167 173 178 182 176 174 176 177 179 178 184 190 194 191
119 110 129 146 164 163 167 175 201 237 244 258 251 272 303 281 250 256 286 262 259 248 186 218 193 162 193 181 197 211 216 224 90 80 115 152 158 164 163 171 172 174 175 163 166 168 170 172 174 174 179 184 192 197
136 139 166 163 171 182 199 208 217 240 250 250 242 253 277 282 287 324 253 264 213 222 223 219 193 173 177 214 213 210 9 33 76 124 157 173 172 164 164 165 165 168 164 163 166 166 168 172 174 171 168 176 184 190
259 204 194 182 192 225 232 248 270 247 241 238 260 212 238 271 279 273 264 267 229 230 202 282 308 207 226 208 312 87 96 131 162 173 168 169 165 165 170 169 168 171 166 165 166 165 168 169 168 169 182 180 180 183
192 208 212 219 207 211 217 217 223 262 250 264 259 255 255 260 267 271 273 276 261 262 284 247 226 239 151 66 84 124 176 186 168 164 170 172 170 169 172 175 172 170 170 167 169 173 178 175 176 182 191 188 193 194
218 221 218 208 192 226 243 230 221 260 250 181 232 225 242 259 264 278 276 281 276 254 245 240 292 54 48 111 0 197 203 190 177 158 170 178 179 175 178 178 178 176 171 167 175 178 180 181 191 204 199 196 192 197
221 212 208 188 196 229 270 240 240 255 267 253 250 251 251 217 246 256 277 251 256 237 241 57 89 237 245 246 228 192 201 196 190 190 185 179 181 180 175 182 189 175 180 184 191 191 195 193 197 206 203 203 202 215
234 222 183 203 218 227 248 231 255 230 240 184 241 240 263 231 233 228 240 234 245 218 189 174 223 211 217 194 166 179 185 181 187 187 178 188 182 181 183 191 186 188 196 202 199 206 202 203 216 211 211 204 203 210
200 171 208 217 227 224 255 214 226 225 216 237 199 226 217 231 250 309 253 235 207 212 219 207 197 199 202 188 180 189 190 192 194 197 198 190 194 198 203 208 201 203 207 213 214 218 217 217 220 219 204 199 200 203
177 194 202 220 233 242 268 251 254 223 274 248 227 255 241 198 243 252 256 240 156 191 198 195 189 175 171 175 182 184 188 195 201 206 201 205 201 201 210 217 223 221 220 219 220 224 223 219 222 210 202 205 202 203
225 287 215 217 238 203 217 242 288 235 249 226 293 284 194 199 244 248 256 137 167 206 199 198 197 196 203 203 205 203 200 197 211 208 204 210 212 210 215 224 230 229 224 217 221 221 222 220 220 206 207 208 206 212
240 190 276 282 242 240 227 252 219 234 243 228 253 355 349 250 252 248 353 87 163 197 205 210 211 213 214 221 219 217 221 201 208 219 223 220 213 222 225 225 229 233 228 219 222 222 221 220 215 205 211 210 212 218
225 177 206 246 285 274 281 267 292 260 238 236 208 185 229 239 242 117 121 157 197 215 218 215 218 226 227 207 201 205 204 226 210 228 222 225 219 227 235 239 241 240 244 243 224 220 225 224 219 209 212 211 215 218
39 321 254 286 275 252 263 283 224 233 240 92 249 227 239 250 352 46 338 287 261 247 239 228 224 220 223 220 210 220 225 221 223 232 229 216 225 234 234 241 243 240 239 240 238 221 223 227 223 214 211 212 213 214
257 314 295 243 258 237 229 230 250 237 327 201 258 265 285 320 302 290 290 266 253 254 246 233 238 230 231 230 225 232 244 238 224 213 231 243 247 253 248 243 242 238 239 246 242 233 217 220 221 213 213 210 213 215
245 275 279 246 232 242 210 212 263 269 263 262 267 273 279 278 285 286 272 262 257 249 246 226 238 245 238 235 234 235 235 240 226 224 232 245 237 246 262 273 259 236 234 236 232 219 204 205 208 202 199 200 208 203
293 265 255 246 269 270 256 273 274 274 268 260 259 258 268 283 288 283 274 270 251 242 232 235 239 243 239 239 231 235 248 251 237 231 231 241 249 262 280 284 245 233 231 232 234 222 210 202 204 199 198 206 215 215
259 254 287 275 289 268 305 272 273 265 267 254 248 247 255 263 269 271 271 269 239 231 233 235 238 245 246 242 244 241 239 242 224 231 234 241 246 258 272 268 240 219 219 218 220 225 217 211 208 206 210 214 218 217
247 265 261 270 264 251 195 265 261 271 252 253 257 234 233 237 259 265 270 252 226 213 220 232 236 237 238 239 238 242 243 245 244 247 251 245 246 254 260 259 229 223 212 207 210 215 217 210 209 212 213 215 216 214